Chicago Executive, IL

5:11 AM CST on December 12, 2019 (GMT -0600)
Chicago Executive

Weather History for KPWK - October, 2019

Change the Weather History Date:

Sunday, October 20, 2019

  Actual Average Record
Temperature  
Mean Temperature 56 °F 51 °F  
Max Temperature 64 °F 60 °F 84 °F (2003)
Min Temperature 48 °F 41 °F 31 °F (2018)
Degree Days  
Heating Degree Days 9 14  
Month to date heating degree days 201 228  
Since 1 July heating degree days 208 340  
Cooling Degree Days 0 0  
Month to date cooling degree days 13 11  
Year to date cooling degree days 996 789  
Growing Degree Days 6 (Base 50)    
Moisture  
Dew Point 47 °F    
Average Humidity 80    
Maximum Humidity 97    
Minimum Humidity 56    
Precipitation  
Precipitation 0.00 in 0.09 in 0.27 in (2008)
Month to date precipitation 2.31 1.95  
Year to date precipitation 39.00 27.64  
Sea Level Pressure  
Sea Level Pressure 29.90 in    
Wind  
Wind Speed 5 mph ()    
Max Wind Speed 13 mph    
Max Gust Speed 18 mph    
Visibility 7.8 miles    
Events Fog    
T = Trace of Precipitation, MM = Missing Value Source: Averaged Metar Reports

Daily Weather History Graph

Daily Weather History Graph

Search for Another Location

Airport or City:

Astronomy

Oct. 20, 2019 Rise Set
Actual Time 7:09 AM CDT 6:02 PM CDT
Civil Twilight 6:41 AM CDT 6:30 PM CDT
Nautical Twilight 6:08 AM CDT 7:03 PM CDT
Astronomical Twilight 5:36 AM CDT 7:35 PM CDT
Moon 11:06 PM CDT (10/20) 1:41 PM CDT (10/20)
Length of Visible Light 11h 49m
Length of Day
10h 52m
Waning Gibbous, 59% of the Moon is Illuminated
Oct 20
Waning Gibbous
Oct 21
Last Quarter
Oct 27
New
Nov 4
First Quarter
Nov 12
Full

Hourly Weather History & Observations

Time (CDT) Temp. Dew Point Humidity Pressure Visibility Wind Dir Wind Speed Gust Speed Precip Events Conditions
12:52 AM 57.9 °F 48.9 °F 72% 29.76 in 10.0 mi West 4.6 mph - N/A   Overcast
1:52 AM 57.9 °F 48.9 °F 72% 29.78 in 10.0 mi WNW 6.9 mph - N/A   Overcast
2:39 AM 57.0 °F 48.9 °F 74% 29.78 in 10.0 mi Calm Calm - N/A   Overcast
2:52 AM 57.0 °F 48.9 °F 74% 29.78 in 10.0 mi WNW 4.6 mph - N/A   Overcast
3:01 AM 55.9 °F 48.0 °F 75% 29.79 in 10.0 mi WNW 4.6 mph - N/A   Mostly Cloudy
3:52 AM 55.0 °F 48.9 °F 80% 29.80 in 10.0 mi NW 9.2 mph - N/A   Overcast
4:00 AM 55.0 °F 48.9 °F 80% 29.81 in 10.0 mi NW 9.2 mph - N/A   Overcast
4:52 AM 55.0 °F 48.0 °F 77% 29.83 in 10.0 mi NW 6.9 mph - N/A   Overcast
5:03 AM 54.0 °F 48.0 °F 80% 29.84 in 10.0 mi NW 8.1 mph - N/A   Overcast
5:25 AM 53.1 °F 46.9 °F 80% 29.84 in 10.0 mi NW 5.8 mph - N/A   Scattered Clouds
5:52 AM 51.1 °F 46.0 °F 83% 29.85 in 10.0 mi NW 4.6 mph - N/A   Partly Cloudy
6:52 AM 50.0 °F 45.0 °F 83% 29.87 in 10.0 mi NNW 3.5 mph - N/A   Clear
7:36 AM 50.0 °F 45.0 °F 83% 29.88 in 10.0 mi NNW 5.8 mph - N/A   Scattered Clouds
7:44 AM 50.0 °F 46.0 °F 86% 29.88 in 10.0 mi NNW 4.6 mph - N/A   Mostly Cloudy
7:52 AM 50.0 °F 46.0 °F 86% 29.89 in 10.0 mi NW 5.8 mph - N/A   Mostly Cloudy
8:52 AM 52.0 °F 46.0 °F 80% 29.93 in 10.0 mi NNW 8.1 mph - N/A   Overcast
9:21 AM 53.1 °F 46.0 °F 77% 29.94 in 10.0 mi WNW 5.8 mph - N/A   Scattered Clouds
9:52 AM 55.0 °F 46.0 °F 72% 29.94 in 10.0 mi NW 3.5 mph - N/A   Clear
10:52 AM 59.0 °F 46.9 °F 64% 29.94 in 10.0 mi North 3.5 mph - N/A   Clear
11:52 AM 63.0 °F 46.9 °F 56% 29.94 in 10.0 mi NNE 4.6 mph - N/A   Clear
12:52 PM 62.1 °F 48.9 °F 62% 29.94 in 10.0 mi East 6.9 mph - N/A   Clear
1:52 PM 61.0 °F 46.9 °F 60% 29.92 in 10.0 mi ENE 6.9 mph - N/A   Clear
2:52 PM 61.0 °F 48.0 °F 62% 29.93 in 10.0 mi NE 6.9 mph - N/A   Clear
3:52 PM 59.0 °F 46.9 °F 64% 29.94 in 10.0 mi East 6.9 mph - N/A   Clear
4:52 PM 55.0 °F 45.0 °F 69% 29.94 in 10.0 mi NE 5.8 mph - N/A   Clear
5:52 PM 50.0 °F 45.0 °F 83% 29.94 in 10.0 mi NE 6.9 mph - N/A   Clear
6:17 PM 48.9 °F 45.0 °F 86% 29.94 in 10.0 mi East 5.8 mph - N/A   Scattered Clouds
6:29 PM 48.9 °F 45.0 °F 86% 29.94 in 9.0 mi ENE 4.6 mph - N/A   Mostly Cloudy
6:52 PM 48.9 °F 45.0 °F 86% 29.95 in 9.0 mi ENE 8.1 mph - N/A   Overcast
7:05 PM 48.9 °F 45.0 °F 86% 29.94 in 8.0 mi NE 6.9 mph - N/A   Overcast
7:52 PM 48.9 °F 45.0 °F 86% 29.95 in 8.0 mi East 6.9 mph - N/A   Overcast
8:19 PM 48.9 °F 46.0 °F 90% 29.94 in 4.0 mi East 8.1 mph - N/A   Overcast
8:52 PM 48.9 °F 46.0 °F 90% 29.94 in 5.0 mi East 6.9 mph - N/A   Overcast
9:25 PM 48.9 °F 46.0 °F 90% 29.93 in 1.8 mi ESE 6.9 mph - N/A   Overcast
9:38 PM 48.9 °F 46.0 °F 90% 29.93 in 0.8 mi East 6.9 mph - N/A   Overcast
9:46 PM 48.2 °F 46.4 °F 93% 29.93 in 1.2 mi East 5.8 mph - N/A   Overcast
9:47 PM 48.9 °F 46.9 °F 93% 29.94 in 1.2 mi ENE 6.9 mph - N/A   Overcast
10:01 PM 48.9 °F 46.9 °F 93% 29.93 in 1.0 mi East 5.8 mph - N/A   Mist
10:08 PM 48.9 °F 46.9 °F 93% 29.93 in 0.5 mi East 4.6 mph - N/A Fog Fog
10:52 PM 48.9 °F 48.0 °F 97% 29.93 in 0.5 mi East 4.6 mph - N/A Fog Fog
11:52 PM 50.0 °F 48.0 °F 93% 29.91 in 0.2 mi East 5.8 mph - N/A Fog Fog